{"data":{"norad_id":59316,"epoch":"2026-09-21T05:41:34.022976Z","epoch_age_seconds":98611,"freshness":"FRESH","line1":"1 59316U 24056W   26264.23719934  .00000201  00000+0  16804-4 0  9994","line2":"2 59316  43.0031 210.4316 0000605 273.9351  86.1431 15.27576573141013","mean_motion":15.27576573,"eccentricity":6.05e-5,"inclination_deg":43.0031,"raan_deg":210.4316,"arg_perigee_deg":273.9351,"mean_anomaly_deg":86.1431,"bstar":1.6804e-5,"rev_number":14101,"period_min":94.266960193818,"perigee_km":482.64425535005,"apogee_km":483.47446010934,"semimajor_km":6861.1963577297,"source":"CELESTRAK","updated_at":"2026-09-22T09:00:48.897080Z"}}